Dewpoint
25 28 30 34 40 36 38 39 45 50 56 55 54 54 57 59 60 60 59 56 54 56 58 62 63 62 63 65 67 68 70 72 69 66 64 64 63 65 66 67 71 72 70 73
24 23 29 34 41 38 36 41 45 50 53 53 52 53 58 59 60 60 60 59 55 55 57 61 62 61 63 64 66 70 71 73 71 67 66 65 64 65 66 67 70 71 70 72
15 20 33 32 34 35 36 38 42 44 51 53 53 52 56 58 59 61 59 58 56 54 55 60 62 62 63 65 66 68 70 72 72 70 69 71 74 74 69 68 67 69 70 71
18 26 30 31 30 33 31 38 45 45 44 43 50 42 54 55 58 60 55 58 55 55 56 58 61 62 62 64 66 68 71 72 73 73 70 71 65 64 64 66 67 69 72 72
20 25 29 29 29 30 34 41 44 43 43 43 44 45 51 53 54 57 58 57 56 55 55 57 60 62 62 64 65 67 71 73 72 73 72 72 68 65 66 66 70 72 73 72
21 22 25 26 29 31 39 41 44 44 41 37 40 43 44 50 52 52 57 56 57 54 55 56 59 61 63 63 64 66 70 72 72 72 72 72 71 68 66 68 67 66 66 69
18 19 19 25 25 30 36 33 31 32 34 34 45 44 44 48 48 51 52 56 57 56 54 56 58 60 63 64 65 66 69 71 71 69 70 71 72 71 71 71 67 68 65 65
16 15 19 26 25 28 32 29 26 31 37 38 46 43 44 46 50 50 51 52 58 57 54 54 58 60 63 64 65 66 67 70 70 70 71 72 73 75 67 69 66 66 65 66
18 19 23 31 26 31 29 30 30 31 36 34 36 43 47 44 51 51 51 52 55 57 56 55 58 61 63 64 66 66 67 69 69 68 70 72 72 71 69 72 72 68 71 67
25 26 34 39 41 36 37 33 31 30 36 35 33 38 40 48 53 53 52 54 55 59 59 57 57 60 62 63 64 66 67 68 68 68 69 69 71 71 72 72 72 71 71 72
28 27 34 41 41 36 37 34 34 31 35 41 34 40 48 53 56 54 52 54 56 57 59 59 59 61 63 64 64 65 67 68 67 68 69 69 69 69 72 74 73 74 74 73
28 24 26 30 32 34 40 39 34 32 37 36 43 33 52 55 56 56 52 54 56 60 61 60 61 62 64 64 65 67 66 67 67 67 69 69 69 70 69 71 71 73 75 72
29 25 25 26 30 34 32 35 37 32 45 41 30 34 52 55 57 58 57 55 56 59 63 62 62 64 65 65 66 67 68 68 68 68 68 68 69 69 70 70 71 72 73 73
39 26 28 25 30 33 31 36 36 31 27 27 27 33 45 54 57 58 60 60 58 57 61 63 64 64 65 68 68 69 68 69 70 68 68 69 70 69 70 70 71 71 73 73
31 32 32 34 35 32 32 34 35 34 36 33 40 40 51 56 57 58 59 61 59 61 63 64 64 66 67 68 68 69 70 70 70 71 70 71 72 72 72 72 72 72 73 73
29 34 36 35 36 36 30 33 35 38 38 40 43 45 55 57 58 58 58 60 59 61 63 64 65 65 66 66 66 68 68 70 72 71 71 72 73 73 74 74 73 74 73 73
31 31 33 29 35 33 33 36 37 39 43 41 37 51 55 55 56 57 57 58 59 61 63 64 65 66 66 66 66 66 67 68 70 71 71 72 73 73 73 74 75 74 73 73
32 33 32 29 36 28 37 42 43 41 46 48 50 52 55 56 58 58 57 57 57 58 59 61 65 66 67 68 67 68 68 69 70 70 71 71 72 72 73 74 74 72 76 75
36 34 30 27 27 28 33 41 40 38 38 46 47 50 50 52 55 58 58 58 57 58 58 59 62 63 65 66 66 68 68 69 70 70 72 71 71 72 72 72 73 74 74 73
31 39 31 29 27 27 37 42 43 42 33 46 46 48 48 48 43 55 57 57 57 58 59 60 61 62 63 63 66 68 68 68 68 70 70 70 71 70 70 71 72 68 67 65
32 34 29 28 28 28 39 42 42 36 40 46 46 50 51 50 54 57 57 57 57 59 59 61 61 60 61 62 65 66 68 68 69 70 70 70 71 70 71 70 69 68 65 62
30 29 28 31 31 30 42 43 39 46 48 48 51 52 54 55 57 57 57 56 57 57 58 59 60 60 61 62 65 66 66 68 68 69 70 69 67 66 63 61 60 60 60 58
29 29 32 30 35 47 46 46 46 46 49 50 50 49 51 54 54 56 57 55 56 58 58 59 59 60 59 60 63 61 63 66 65 65 65 64 65 64 65 63 59 58 57 56
39 40 33 37 39 42 46 46 47 49 45 44 45 46 48 49 53 55 56 55 56 57 58 59 59 59 58 59 58 59 61 62 63 62 62 61 60 59 60 59 60 57 56 56
38 43 39 38 42 45 47 47 49 48 47 47 47 46 44 46 51 54 55 57 56 57 58 57 57 58 57 57 58 58 58 59 57 58 58 57 57 54 52 49 50 53 50 52
41 39 36 31 41 43 40 48 49 48 49 50 49 48 47 47 50 54 55 57 57 57 57 58 57 57 56 56 57 58 58 57 55 55 54 54 53 52 52 50 48 44 44 43
Lifted_Index
7 5 3 1 0 1 1 0 -1 -1 -2 -2 -2 -2 -2 -2 -1 -1 -1 -2 -1 -1 -2 -2 -2 -2 -2 -2 -2 -3 -3 -3 -2 -1 -1 -1 -1 -2 -3 -4 -4 -5 -5 -5
6 5 3 2 1 0 0 -0 -1 -1 -2 -2 -2 -2 -2 -1 -1 -0 -1 -1 -1 -1 -1 -2 -2 -2 -2 -2 -2 -3 -3 -3 -3 -2 -2 -2 -2 -2 -3 -4 -4 -4 -4 -4
5 4 3 2 1 0 -1 -1 -1 -1 -1 -2 -2 -2 -2 -1 -1 -1 -1 -1 -1 -1 -1 -2 -2 -2 -2 -2 -2 -2 -3 -3 -3 -3 -2 -2 -2 -3 -3 -3 -4 -4 -4 -4
4 3 2 1 1 -0 -1 -2 -1 -1 -1 -1 -2 -2 -2 -1 -1 -1 -1 -2 -1 -1 -1 -2 -2 -2 -2 -2 -2 -2 -3 -3 -3 -3 -3 -2 -2 -2 -2 -3 -3 -4 -4 -4
3 3 2 1 1 -0 -1 -2 -2 -1 -1 -1 -1 -2 -2 -2 -2 -2 -2 -2 -2 -1 -1 -2 -2 -2 -2 -2 -2 -2 -3 -3 -3 -3 -3 -2 -2 -2 -2 -2 -3 -3 -4 -4
3 3 3 2 1 0 -1 -2 -2 -2 -1 -1 -1 -2 -2 -2 -2 -2 -2 -2 -2 -1 -1 -1 -2 -2 -2 -2 -2 -2 -3 -3 -3 -3 -3 -3 -2 -2 -2 -3 -3 -3 -3 -3
3 3 3 2 2 1 -0 -1 -2 -2 -1 -2 -2 -2 -2 -2 -2 -1 -2 -2 -2 -2 -1 -1 -2 -2 -2 -2 -2 -2 -2 -3 -3 -3 -3 -3 -3 -3 -3 -3 -3 -3 -3 -3
2 2 2 2 1 1 -0 -1 -1 -2 -2 -2 -2 -2 -2 -2 -1 -1 -1 -2 -2 -2 -1 -1 -1 -2 -3 -2 -2 -2 -2 -3 -3 -3 -3 -3 -3 -3 -3 -3 -3 -3 -3 -3
0 0 0 0 0 -0 -1 -1 -2 -2 -2 -2 -2 -3 -2 -2 -2 -2 -2 -1 -1 -2 -1 -1 -1 -2 -3 -3 -2 -2 -2 -2 -2 -2 -3 -3 -3 -3 -3 -3 -3 -3 -3 -3
-0 -1 -1 -2 -2 -2 -2 -2 -2 -2 -2 -2 -2 -2 -2 -3 -3 -3 -3 -2 -1 -1 -1 -1 -2 -2 -3 -3 -3 -2 -2 -2 -2 -2 -3 -3 -3 -3 -3 -3 -3 -3 -4 -4
-0 -1 -2 -3 -3 -3 -3 -2 -2 -2 -2 -2 -1 -2 -3 -4 -5 -4 -3 -2 -2 -1 -1 -2 -2 -2 -3 -3 -3 -3 -3 -2 -2 -2 -3 -3 -3 -3 -4 -4 -4 -4 -4 -4
-1 -1 -1 -2 -2 -2 -3 -2 -2 -1 -1 -1 -1 -2 -3 -5 -6 -5 -4 -3 -2 -2 -1 -2 -2 -2 -3 -3 -3 -3 -3 -3 -3 -3 -3 -3 -3 -3 -3 -4 -4 -4 -4 -4
-1 -1 -1 -1 -1 -2 -2 -2 -2 -1 -1 -0 -1 -2 -4 -5 -6 -5 -5 -3 -3 -2 -2 -2 -2 -2 -2 -3 -3 -3 -3 -3 -3 -3 -3 -3 -3 -3 -3 -3 -4 -4 -4 -4
-1 -1 -1 -1 -1 -1 -2 -2 -2 -2 -1 -1 -1 -2 -4 -5 -5 -5 -5 -4 -3 -3 -3 -2 -2 -2 -2 -3 -3 -4 -4 -3 -3 -3 -3 -3 -3 -3 -3 -3 -4 -4 -5 -5
-1 -1 -1 -2 -2 -2 -2 -2 -2 -2 -2 -2 -2 -3 -4 -5 -5 -4 -4 -4 -4 -4 -3 -3 -2 -2 -2 -2 -3 -3 -3 -3 -3 -3 -3 -3 -3 -3 -3 -3 -4 -4 -5 -5
-0 -1 -2 -2 -2 -2 -2 -2 -2 -3 -3 -3 -3 -4 -5 -5 -4 -4 -4 -4 -4 -5 -4 -3 -2 -1 -1 -1 -1 -2 -2 -3 -3 -3 -3 -3 -3 -4 -4 -4 -4 -4 -4 -5
-0 -1 -1 -2 -2 -2 -2 -3 -3 -3 -4 -4 -4 -5 -5 -5 -4 -3 -3 -3 -4 -4 -4 -4 -2 -1 -1 -1 -0 -1 -1 -2 -2 -2 -3 -3 -3 -4 -4 -4 -4 -4 -4 -4
0 -0 -1 -2 -2 -2 -2 -3 -3 -3 -4 -4 -4 -4 -4 -4 -4 -3 -2 -2 -3 -3 -4 -4 -3 -2 -1 -1 0 -0 -1 -1 -2 -2 -3 -3 -3 -4 -4 -4 -4 -4 -4 -4
0 -0 -1 -1 -1 -1 -2 -2 -3 -3 -3 -3 -4 -3 -3 -3 -3 -3 -2 -2 -2 -2 -3 -3 -2 -2 -2 -1 -0 -0 -1 -1 -2 -2 -3 -3 -3 -3 -3 -4 -4 -4 -4 -3
0 -0 -1 -1 -1 -1 -2 -2 -2 -2 -2 -3 -3 -3 -2 -2 -3 -3 -2 -1 -1 -1 -2 -2 -2 -2 -2 -2 -1 -1 -1 -1 -2 -2 -2 -3 -3 -3 -3 -3 -3 -3 -3 -2
0 -0 -1 -1 -1 -1 -2 -2 -2 -2 -2 -3 -3 -3 -3 -3 -3 -2 -2 -1 -1 -1 -1 -1 -2 -3 -3 -3 -3 -2 -2 -2 -2 -2 -2 -2 -2 -2 -2 -2 -2 -2 -1 -1
0 -0 -1 -1 -1 -2 -2 -2 -2 -2 -3 -3 -3 -3 -3 -3 -3 -2 -1 -1 -0 -0 -0 -1 -1 -2 -2 -3 -3 -3 -3 -2 -2 -2 -2 -2 -2 -1 -1 -0 -0 -0 0 0
-0 -0 -1 -1 -1 -2 -2 -2 -2 -3 -3 -3 -2 -2 -2 -3 -3 -2 -2 -1 -0 0 0 -0 -1 -1 -2 -3 -3 -3 -3 -2 -2 -2 -2 -2 -1 -1 0 1 1 1 1 1
-1 -1 -1 -1 -1 -2 -2 -2 -3 -3 -2 -2 -1 -1 -1 -1 -2 -2 -2 -1 -1 -0 0 0 -0 -1 -2 -2 -3 -3 -3 -2 -2 -2 -2 -1 -1 -0 1 2 2 2 2 2
-2 -1 -1 -1 -1 -1 -2 -2 -3 -2 -2 -1 -1 -0 -0 -0 -1 -2 -2 -1 -1 -0 0 -0 -0 -1 -1 -2 -2 -2 -2 -2 -2 -2 -2 -1 -1 -0 1 1 1 1 1 1
-2 -2 -1 -1 -1 -1 -2 -2 -3 -2 -2 -2 -1 -0 0 0 -0 -1 -2 -1 -1 -1 -0 -0 -1 -1 -1 -2 -2 -2 -2 -2 -2 -2 -2 -1 -1 -1 -0 1 1 1 1 1